Wetterdaten: Montag, 07.05.2007
Datum Zeit Temp. A. Feuchte A. Luftdruck Regen Wind Richtung Richtung Sonnenschein UV Solar Windben
07.05.2007 00:00 15,8 C 52 % 1012,5 hPa 0,0 mm 0,0 km/h (0 Bft) W-NW 292 0 min 0 UV-I 0 W/m 4,8 km/h (1 Bft)
07.05.2007 00:10 15,7 C 52 % 1012,5 hPa 0,0 mm 1,6 km/h (1 Bft) W-SW 247 0 min 0 UV-I 0 W/m 3,2 km/h (1 Bft)
07.05.2007 00:20 15,7 C 52 % 1012,5 hPa 0,0 mm 0,0 km/h (0 Bft) SW 225 0 min 0 UV-I 0 W/m 4,8 km/h (1 Bft)
07.05.2007 00:30 15,7 C 52 % 1012,5 hPa 0,0 mm 0,0 km/h (0 Bft) W 270 0 min 0 UV-I 0 W/m 4,8 km/h (1 Bft)
07.05.2007 00:40 15,6 C 52 % 1012,4 hPa 0,0 mm 1,6 km/h (1 Bft) S-SW 202 0 min 0 UV-I 0 W/m 4,8 km/h (1 Bft)
07.05.2007 00:50 15,6 C 52 % 1012,3 hPa 0,0 mm 1,6 km/h (1 Bft) SW 225 0 min 0 UV-I 0 W/m 6,4 km/h (2 Bft)
07.05.2007 01:00 15,6 C 52 % 1012,3 hPa 0,0 mm 1,6 km/h (1 Bft) W 270 0 min 0 UV-I 0 W/m 8,0 km/h (2 Bft)
07.05.2007 01:10 15,6 C 52 % 1012,2 hPa 0,0 mm 1,6 km/h (1 Bft) SW 225 0 min 0 UV-I 0 W/m 4,8 km/h (1 Bft)
07.05.2007 01:20 15,6 C 51 % 1012,1 hPa 0,0 mm 4,8 km/h (1 Bft) SW 225 0 min 0 UV-I 0 W/m 11,3 km/h (2 Bft)
07.05.2007 01:30 15,7 C 51 % 1012,1 hPa 0,0 mm 3,2 km/h (1 Bft) W-SW 247 0 min 0 UV-I 0 W/m 11,3 km/h (2 Bft)
07.05.2007 01:40 15,8 C 52 % 1012,0 hPa 0,0 mm 4,8 km/h (1 Bft) W-SW 247 0 min 0 UV-I 0 W/m 14,5 km/h (3 Bft)
07.05.2007 01:50 15,8 C 52 % 1011,9 hPa 0,0 mm 4,8 km/h (1 Bft) SW 225 0 min 0 UV-I 0 W/m 14,5 km/h (3 Bft)
07.05.2007 02:00 15,8 C 53 % 1011,7 hPa 0,0 mm 4,8 km/h (1 Bft) SW 225 0 min 0 UV-I 0 W/m 16,1 km/h (3 Bft)
07.05.2007 02:10 15,8 C 54 % 1011,8 hPa 0,0 mm 4,8 km/h (1 Bft) W-SW 247 0 min 0 UV-I 0 W/m 11,3 km/h (2 Bft)
07.05.2007 02:20 15,7 C 55 % 1011,8 hPa 0,0 mm 4,8 km/h (1 Bft) W-SW 247 0 min 0 UV-I 0 W/m 16,1 km/h (3 Bft)
07.05.2007 02:30 15,6 C 56 % 1011,8 hPa 0,0 mm 4,8 km/h (1 Bft) W-SW 247 0 min 0 UV-I 0 W/m 11,3 km/h (2 Bft)
07.05.2007 02:40 15,5 C 59 % 1011,9 hPa 0,0 mm 4,8 km/h (1 Bft) W-SW 247 0 min 0 UV-I 0 W/m 19,3 km/h (3 Bft)
07.05.2007 02:50 15,4 C 61 % 1011,8 hPa 0,0 mm 4,8 km/h (1 Bft) W-SW 247 0 min 0 UV-I 0 W/m 17,7 km/h (3 Bft)
07.05.2007 03:00 15,2 C 63 % 1011,7 hPa 0,0 mm 6,4 km/h (2 Bft) W-SW 247 0 min 0 UV-I 0 W/m 16,1 km/h (3 Bft)
07.05.2007 03:10 14,9 C 65 % 1011,6 hPa 0,0 mm 6,4 km/h (2 Bft) W-SW 247 0 min 0 UV-I 0 W/m 20,9 km/h (4 Bft)
07.05.2007 03:20 14,7 C 68 % 1011,6 hPa 0,0 mm 6,4 km/h (2 Bft) W-SW 247 0 min 0 UV-I 0 W/m 16,1 km/h (3 Bft)
07.05.2007 03:30 14,2 C 73 % 1011,5 hPa 0,3 mm 3,2 km/h (1 Bft) W-SW 247 0 min 0 UV-I 0 W/m 9,7 km/h (2 Bft)
07.05.2007 03:40 13,6 C 76 % 1011,5 hPa 0,0 mm 3,2 km/h (1 Bft) W-SW 247 0 min 0 UV-I 0 W/m 11,3 km/h (2 Bft)
07.05.2007 03:50 13,3 C 77 % 1011,4 hPa 0,0 mm 3,2 km/h (1 Bft) SW 225 0 min 0 UV-I 0 W/m 9,7 km/h (2 Bft)
07.05.2007 04:00 13,3 C 78 % 1011,3 hPa 0,0 mm 1,6 km/h (1 Bft) SW 225 0 min 0 UV-I 0 W/m 6,4 km/h (2 Bft)
07.05.2007 04:10 13,2 C 78 % 1011,3 hPa 0,0 mm 1,6 km/h (1 Bft) SW 225 0 min 0 UV-I 0 W/m 8,0 km/h (2 Bft)
07.05.2007 04:20 13,2 C 76 % 1011,2 hPa 0,0 mm 3,2 km/h (1 Bft) SW 225 0 min 0 UV-I 0 W/m 8,0 km/h (2 Bft)
07.05.2007 04:30 13,3 C 75 % 1011,1 hPa 0,0 mm 3,2 km/h (1 Bft) W-SW 247 0 min 0 UV-I 0 W/m 8,0 km/h (2 Bft)
07.05.2007 04:40 13,5 C 74 % 1011,1 hPa 0,0 mm 4,8 km/h (1 Bft) W-SW 247 0 min 0 UV-I 0 W/m 14,5 km/h (3 Bft)
07.05.2007 04:50 13,6 C 74 % 1011,1 hPa 0,0 mm 4,8 km/h (1 Bft) W-SW 247 0 min 0 UV-I 0 W/m 11,3 km/h (2 Bft)
07.05.2007 05:00 13,6 C 74 % 1011,1 hPa 0,0 mm 3,2 km/h (1 Bft) W-SW 247 0 min 0 UV-I 0 W/m 14,5 km/h (3 Bft)
07.05.2007 05:10 13,6 C 75 % 1010,9 hPa 0,0 mm 3,2 km/h (1 Bft) SW 225 0 min 0 UV-I 0 W/m 14,5 km/h (3 Bft)
07.05.2007 05:20 13,6 C 74 % 1010,7 hPa 0,0 mm 4,8 km/h (1 Bft) W-SW 247 0 min 0 UV-I 0 W/m 14,5 km/h (3 Bft)
07.05.2007 05:30 13,6 C 75 % 1010,7 hPa 0,0 mm 3,2 km/h (1 Bft) SW 225 0 min 0 UV-I 0 W/m 9,7 km/h (2 Bft)
07.05.2007 05:40 13,4 C 76 % 1010,5 hPa 0,0 mm 3,2 km/h (1 Bft) SW 225 0 min 0 UV-I 0 W/m 9,7 km/h (2 Bft)
07.05.2007 05:50 13,4 C 77 % 1010,4 hPa 0,0 mm 4,8 km/h (1 Bft) SW 225 0 min 0 UV-I 0 W/m 9,7 km/h (2 Bft)
07.05.2007 06:00 13,3 C 78 % 1010,4 hPa 0,0 mm 4,8 km/h (1 Bft) W-SW 247 0 min 0 UV-I 0 W/m 16,1 km/h (3 Bft)
07.05.2007 06:10 13,3 C 78 % 1010,5 hPa 0,0 mm 4,8 km/h (1 Bft) W-SW 247 0 min 0 UV-I 0 W/m 9,7 km/h (2 Bft)
07.05.2007 06:20 13,2 C 79 % 1010,4 hPa 0,0 mm 3,2 km/h (1 Bft) W-SW 247 0 min 0 UV-I 0 W/m 14,5 km/h (3 Bft)
07.05.2007 06:30 13,2 C 82 % 1010,5 hPa 0,0 mm 3,2 km/h (1 Bft) W-SW 247 0 min 0 UV-I 0 W/m 11,3 km/h (2 Bft)
07.05.2007 06:40 12,8 C 85 % 1010,6 hPa 0,3 mm 4,8 km/h (1 Bft) SW 225 0 min 0 UV-I 7 W/m 16,1 km/h (3 Bft)
07.05.2007 06:50 12,5 C 86 % 1010,6 hPa 0,0 mm 3,2 km/h (1 Bft) SW 225 0 min 0 UV-I 9 W/m 14,5 km/h (3 Bft)
07.05.2007 07:00 12,3 C 87 % 1010,7 hPa 0,0 mm 4,8 km/h (1 Bft) W-SW 247 0 min 0 UV-I 9 W/m 11,3 km/h (2 Bft)
07.05.2007 07:10 12,3 C 87 % 1010,6 hPa 0,0 mm 4,8 km/h (1 Bft) SW 225 0 min 0 UV-I 16 W/m 11,3 km/h (2 Bft)
07.05.2007 07:20 12,2 C 88 % 1010,6 hPa 0,0 mm 3,2 km/h (1 Bft) SW 225 0 min 0 UV-I 21 W/m 12,9 km/h (3 Bft)
07.05.2007 07:30 12,2 C 89 % 1010,5 hPa 0,3 mm 3,2 km/h (1 Bft) SW 225 0 min 0 UV-I 12 W/m 8,0 km/h (2 Bft)
07.05.2007 07:40 12,1 C 89 % 1010,5 hPa 0,3 mm 3,2 km/h (1 Bft) W-SW 247 0 min 0 UV-I 14 W/m 14,5 km/h (3 Bft)
07.05.2007 07:50 12,1 C 90 % 1010,5 hPa 0,3 mm 3,2 km/h (1 Bft) W-SW 247 0 min 0 UV-I 19 W/m 9,7 km/h (2 Bft)
07.05.2007 08:00 12,1 C 90 % 1010,5 hPa 0,0 mm 1,6 km/h (1 Bft) SW 225 0 min 0 UV-I 23 W/m 4,8 km/h (1 Bft)
07.05.2007 08:10 12,1 C 90 % 1010,4 hPa 0,3 mm 1,6 km/h (1 Bft) W-SW 247 0 min 0 UV-I 35 W/m 6,4 km/h (2 Bft)
07.05.2007 08:20 12,1 C 91 % 1010,4 hPa 0,0 mm 1,6 km/h (1 Bft) W-SW 247 0 min 0 UV-I 35 W/m 6,4 km/h (2 Bft)
07.05.2007 08:30 12,2 C 91 % 1010,4 hPa 0,3 mm 1,6 km/h (1 Bft) SW 225 0 min 0 UV-I 44 W/m 6,4 km/h (2 Bft)
07.05.2007 08:40 12,2 C 90 % 1010,3 hPa 0,3 mm 1,6 km/h (1 Bft) W-SW 247 0 min 0 UV-I 58 W/m 6,4 km/h (2 Bft)
07.05.2007 08:50 12,3 C 89 % 1010,2 hPa 0,0 mm 3,2 km/h (1 Bft) W-SW 247 0 min 0 UV-I 63 W/m 11,3 km/h (2 Bft)
07.05.2007 09:00 12,3 C 89 % 1010,2 hPa 0,0 mm 1,6 km/h (1 Bft) W-SW 247 0 min 0 UV-I 76 W/m 8,0 km/h (2 Bft)
07.05.2007 09:10 12,4 C 89 % 1010,2 hPa 0,3 mm 3,2 km/h (1 Bft) SW 225 0 min 0 UV-I 74 W/m 11,3 km/h (2 Bft)
07.05.2007 09:20 12,4 C 88 % 1010,2 hPa 0,0 mm 3,2 km/h (1 Bft) W-SW 247 0 min 0 UV-I 70 W/m 11,3 km/h (2 Bft)
07.05.2007 09:30 12,4 C 88 % 1010,0 hPa 0,0 mm 3,2 km/h (1 Bft) W-SW 247 0 min 1 UV-I 111 W/m 14,5 km/h (3 Bft)
07.05.2007 09:40 12,4 C 88 % 1010,1 hPa 0,0 mm 4,8 km/h (1 Bft) W-SW 247 0 min 1 UV-I 120 W/m 16,1 km/h (3 Bft)
07.05.2007 09:50 12,3 C 88 % 1010,0 hPa 0,3 mm 3,2 km/h (1 Bft) W-SW 247 0 min 1 UV-I 142 W/m 11,3 km/h (2 Bft)
07.05.2007 10:00 12,3 C 88 % 1009,8 hPa 0,0 mm 3,2 km/h (1 Bft) W-SW 247 0 min 1 UV-I 144 W/m 11,3 km/h (2 Bft)
07.05.2007 10:10 12,3 C 87 % 1009,7 hPa 0,0 mm 3,2 km/h (1 Bft) W-SW 247 0 min 1 UV-I 141 W/m 8,0 km/h (2 Bft)
07.05.2007 10:20 12,3 C 88 % 1009,6 hPa 0,0 mm 1,6 km/h (1 Bft) SW 225 0 min 1 UV-I 102 W/m 8,0 km/h (2 Bft)
07.05.2007 10:30 12,3 C 89 % 1009,6 hPa 0,0 mm 1,6 km/h (1 Bft) S 180 0 min 1 UV-I 111 W/m 6,4 km/h (2 Bft)
07.05.2007 10:40 12,3 C 89 % 1009,5 hPa 0,0 mm 1,6 km/h (1 Bft) W-SW 247 0 min 1 UV-I 113 W/m 8,0 km/h (2 Bft)
07.05.2007 10:50 12,3 C 88 % 1009,5 hPa 0,0 mm 3,2 km/h (1 Bft) W-SW 247 0 min 1 UV-I 109 W/m 14,5 km/h (3 Bft)
07.05.2007 11:00 12,3 C 89 % 1009,4 hPa 0,3 mm 3,2 km/h (1 Bft) W-SW 247 0 min 1 UV-I 137 W/m 9,7 km/h (2 Bft)
07.05.2007 11:10 12,3 C 90 % 1009,3 hPa 0,0 mm 3,2 km/h (1 Bft) W-SW 247 0 min 1 UV-I 183 W/m 8,0 km/h (2 Bft)
07.05.2007 11:20 12,6 C 89 % 1009,1 hPa 0,0 mm 4,8 km/h (1 Bft) W-SW 247 0 min 1 UV-I 185 W/m 19,3 km/h (3 Bft)
07.05.2007 11:30 12,8 C 90 % 1009,1 hPa 0,0 mm 3,2 km/h (1 Bft) W-SW 247 0 min 1 UV-I 176 W/m 11,3 km/h (2 Bft)
07.05.2007 11:40 12,9 C 89 % 1009,1 hPa 0,0 mm 3,2 km/h (1 Bft) W-SW 247 0 min 1 UV-I 169 W/m 14,5 km/h (3 Bft)
07.05.2007 11:50 12,9 C 90 % 1009,0 hPa 0,3 mm 4,8 km/h (1 Bft) W 270 0 min 1 UV-I 163 W/m 16,1 km/h (3 Bft)
07.05.2007 12:00 13,1 C 90 % 1009,0 hPa 0,0 mm 4,8 km/h (1 Bft) W-SW 247 0 min 1 UV-I 148 W/m 14,5 km/h (3 Bft)
07.05.2007 12:10 13,1 C 90 % 1009,0 hPa 0,3 mm 4,8 km/h (1 Bft) W-SW 247 0 min 1 UV-I 155 W/m 16,1 km/h (3 Bft)
07.05.2007 12:20 13,2 C 90 % 1008,8 hPa 0,3 mm 4,8 km/h (1 Bft) W-SW 247 0 min 1 UV-I 130 W/m 20,9 km/h (4 Bft)
07.05.2007 12:30 13,2 C 90 % 1008,7 hPa 0,5 mm 3,2 km/h (1 Bft) W-SW 247 0 min 1 UV-I 123 W/m 11,3 km/h (2 Bft)
07.05.2007 12:40 13,2 C 90 % 1008,7 hPa 0,3 mm 3,2 km/h (1 Bft) W-SW 247 0 min 1 UV-I 130 W/m 14,5 km/h (3 Bft)
07.05.2007 12:50 13,3 C 90 % 1008,6 hPa 0,3 mm 4,8 km/h (1 Bft) W-SW 247 0 min 1 UV-I 121 W/m 14,5 km/h (3 Bft)
07.05.2007 13:00 13,4 C 91 % 1008,5 hPa 0,0 mm 3,2 km/h (1 Bft) W-SW 247 0 min 1 UV-I 137 W/m 11,3 km/h (2 Bft)
07.05.2007 13:10 13,6 C 91 % 1008,4 hPa 0,3 mm 4,8 km/h (1 Bft) W-SW 247 0 min 2 UV-I 207 W/m 11,3 km/h (2 Bft)
07.05.2007 13:20 13,8 C 90 % 1008,3 hPa 0,0 mm 4,8 km/h (1 Bft) SW 225 0 min 1 UV-I 137 W/m 20,9 km/h (4 Bft)
07.05.2007 13:30 13,9 C 89 % 1008,3 hPa 0,0 mm 6,4 km/h (2 Bft) W-SW 247 0 min 1 UV-I 120 W/m 16,1 km/h (3 Bft)
07.05.2007 13:40 14,2 C 88 % 1008,2 hPa 0,0 mm 4,8 km/h (1 Bft) W-SW 247 0 min 2 UV-I 199 W/m 19,3 km/h (3 Bft)
07.05.2007 13:50 14,3 C 89 % 1008,2 hPa 0,0 mm 8,0 km/h (2 Bft) W-SW 247 0 min 2 UV-I 190 W/m 20,9 km/h (4 Bft)
07.05.2007 14:00 14,1 C 90 % 1008,1 hPa 0,0 mm 6,4 km/h (2 Bft) SW 225 0 min 1 UV-I 128 W/m 17,7 km/h (3 Bft)
07.05.2007 14:10 13,9 C 91 % 1008,1 hPa 0,0 mm 3,2 km/h (1 Bft) SW 225 0 min 1 UV-I 146 W/m 14,5 km/h (3 Bft)
07.05.2007 14:20 14,1 C 90 % 1007,9 hPa 0,0 mm 4,8 km/h (1 Bft) SW 225 0 min 1 UV-I 149 W/m 14,5 km/h (3 Bft)
07.05.2007 14:30 14,2 C 90 % 1007,9 hPa 0,0 mm 4,8 km/h (1 Bft) W-SW 247 0 min 1 UV-I 102 W/m 17,7 km/h (3 Bft)
07.05.2007 14:40 14,3 C 89 % 1007,7 hPa 0,3 mm 8,0 km/h (2 Bft) W-SW 247 0 min 1 UV-I 102 W/m 29,0 km/h (5 Bft)
07.05.2007 14:50 14,3 C 89 % 1007,7 hPa 0,0 mm 6,4 km/h (2 Bft) W-SW 247 0 min 2 UV-I 239 W/m 20,9 km/h (4 Bft)
07.05.2007 15:00 14,6 C 88 % 1007,7 hPa 0,0 mm 8,0 km/h (2 Bft) SW 225 0 min 1 UV-I 192 W/m 22,5 km/h (4 Bft)
07.05.2007 15:10 14,6 C 88 % 1007,6 hPa 0,0 mm 8,0 km/h (2 Bft) SW 225 0 min 1 UV-I 155 W/m 20,9 km/h (4 Bft)
07.05.2007 15:20 14,6 C 87 % 1007,6 hPa 0,3 mm 8,0 km/h (2 Bft) SW 225 0 min 1 UV-I 137 W/m 22,5 km/h (4 Bft)
07.05.2007 15:30 14,4 C 87 % 1007,4 hPa 0,3 mm 8,0 km/h (2 Bft) W-SW 247 0 min 1 UV-I 81 W/m 22,5 km/h (4 Bft)
07.05.2007 15:40 14,3 C 89 % 1007,4 hPa 0,5 mm 6,4 km/h (2 Bft) W-SW 247 0 min 1 UV-I 102 W/m 16,1 km/h (3 Bft)
07.05.2007 15:50 14,1 C 89 % 1007,2 hPa 0,3 mm 8,0 km/h (2 Bft) W-SW 247 0 min 1 UV-I 139 W/m 20,9 km/h (4 Bft)
07.05.2007 16:00 14,1 C 89 % 1007,2 hPa 0,0 mm 6,4 km/h (2 Bft) SW 225 0 min 1 UV-I 102 W/m 19,3 km/h (3 Bft)
07.05.2007 16:10 13,9 C 90 % 1007,0 hPa 0,3 mm 6,4 km/h (2 Bft) SW 225 0 min 1 UV-I 100 W/m 14,5 km/h (3 Bft)
07.05.2007 16:20 13,9 C 90 % 1006,8 hPa 0,3 mm 4,8 km/h (1 Bft) W-SW 247 0 min 1 UV-I 105 W/m 17,7 km/h (3 Bft)
07.05.2007 16:30 14,0 C 90 % 1006,7 hPa 0,0 mm 4,8 km/h (1 Bft) W-SW 247 0 min 1 UV-I 111 W/m 17,7 km/h (3 Bft)
07.05.2007 16:40 14,1 C 90 % 1006,4 hPa 0,3 mm 4,8 km/h (1 Bft) W-SW 247 0 min 1 UV-I 98 W/m 14,5 km/h (3 Bft)
07.05.2007 16:50 14,1 C 90 % 1006,4 hPa 0,0 mm 6,4 km/h (2 Bft) W-SW 247 0 min 1 UV-I 120 W/m 19,3 km/h (3 Bft)
07.05.2007 17:00 14,1 C 90 % 1006,3 hPa 0,5 mm 6,4 km/h (2 Bft) W-SW 247 0 min 1 UV-I 125 W/m 20,9 km/h (4 Bft)
07.05.2007 17:10 14,2 C 90 % 1006,2 hPa 0,0 mm 6,4 km/h (2 Bft) SW 225 0 min 1 UV-I 121 W/m 17,7 km/h (3 Bft)
07.05.2007 17:20 14,2 C 90 % 1006,1 hPa 0,5 mm 6,4 km/h (2 Bft) SW 225 0 min 0 UV-I 44 W/m 29,0 km/h (5 Bft)
07.05.2007 17:30 14,1 C 91 % 1006,0 hPa 0,8 mm 6,4 km/h (2 Bft) SW 225 0 min 0 UV-I 62 W/m 20,9 km/h (4 Bft)
07.05.2007 17:40 13,9 C 92 % 1005,6 hPa 0,3 mm 3,2 km/h (1 Bft) W-SW 247 0 min 1 UV-I 113 W/m 11,3 km/h (2 Bft)
07.05.2007 17:50 14,0 C 92 % 1005,6 hPa 0,0 mm 3,2 km/h (1 Bft) SW 225 0 min 0 UV-I 81 W/m 9,7 km/h (2 Bft)
07.05.2007 18:00 14,0 C 92 % 1005,2 hPa 0,5 mm 3,2 km/h (1 Bft) W-SW 247 0 min 0 UV-I 72 W/m 9,7 km/h (2 Bft)
07.05.2007 18:10 13,9 C 92 % 1005,1 hPa 0,5 mm 3,2 km/h (1 Bft) W-SW 247 0 min 0 UV-I 65 W/m 9,7 km/h (2 Bft)
07.05.2007 18:20 13,9 C 92 % 1004,8 hPa 0,5 mm 3,2 km/h (1 Bft) W-SW 247 0 min 0 UV-I 40 W/m 8,0 km/h (2 Bft)
07.05.2007 18:30 14,0 C 92 % 1004,7 hPa 0,0 mm 4,8 km/h (1 Bft) SW 225 0 min 0 UV-I 72 W/m 11,3 km/h (2 Bft)
07.05.2007 18:40 14,1 C 92 % 1004,7 hPa 0,0 mm 6,4 km/h (2 Bft) W-SW 247 0 min 0 UV-I 39 W/m 19,3 km/h (3 Bft)
07.05.2007 18:50 14,2 C 91 % 1004,7 hPa 0,3 mm 8,0 km/h (2 Bft) W-SW 247 0 min 0 UV-I 30 W/m 19,3 km/h (3 Bft)
07.05.2007 19:00 14,2 C 91 % 1004,6 hPa 0,3 mm 8,0 km/h (2 Bft) W-SW 247 0 min 0 UV-I 32 W/m 20,9 km/h (4 Bft)
07.05.2007 19:10 14,3 C 90 % 1004,4 hPa 0,0 mm 8,0 km/h (2 Bft) SW 225 0 min 0 UV-I 54 W/m 22,5 km/h (4 Bft)
07.05.2007 19:20 14,3 C 90 % 1004,2 hPa 0,0 mm 6,4 km/h (2 Bft) W-SW 247 0 min 0 UV-I 53 W/m 20,9 km/h (4 Bft)
07.05.2007 19:30 14,3 C 90 % 1004,2 hPa 0,0 mm 6,4 km/h (2 Bft) W-SW 247 0 min 0 UV-I 23 W/m 16,1 km/h (3 Bft)
07.05.2007 19:40 14,4 C 89 % 1004,0 hPa 0,0 mm 6,4 km/h (2 Bft) SW 225 0 min 0 UV-I 28 W/m 25,7 km/h (4 Bft)
07.05.2007 19:50 14,4 C 89 % 1003,9 hPa 1,0 mm 6,4 km/h (2 Bft) W-SW 247 0 min 0 UV-I 7 W/m 19,3 km/h (3 Bft)
07.05.2007 20:00 14,3 C 90 % 1003,6 hPa 0,5 mm 4,8 km/h (1 Bft) W-SW 247 0 min 0 UV-I 0 W/m 17,7 km/h (3 Bft)
07.05.2007 20:10 14,2 C 90 % 1003,5 hPa 0,3 mm 6,4 km/h (2 Bft) W-SW 247 0 min 0 UV-I 11 W/m 22,5 km/h (4 Bft)
07.05.2007 20:20 14,2 C 90 % 1003,5 hPa 0,0 mm 6,4 km/h (2 Bft) W-SW 247 0 min 0 UV-I 12 W/m 27,4 km/h (4 Bft)
07.05.2007 20:30 14,2 C 90 % 1003,4 hPa 0,0 mm 6,4 km/h (2 Bft) W-SW 247 0 min 0 UV-I 0 W/m 19,3 km/h (3 Bft)
07.05.2007 20:40 14,2 C 90 % 1003,4 hPa 0,0 mm 6,4 km/h (2 Bft) W-SW 247 0 min 0 UV-I 0 W/m 19,3 km/h (3 Bft)
07.05.2007 20:50 14,3 C 88 % 1003,2 hPa 0,0 mm 8,0 km/h (2 Bft) W-SW 247 0 min 0 UV-I 0 W/m 22,5 km/h (4 Bft)
07.05.2007 21:00 14,3 C 89 % 1003,5 hPa 0,8 mm 6,4 km/h (2 Bft) W-SW 247 0 min 0 UV-I 0 W/m 17,7 km/h (3 Bft)
07.05.2007 21:10 14,3 C 89 % 1004,3 hPa 3,6 mm 8,0 km/h (2 Bft) W-SW 247 0 min 0 UV-I 0 W/m 22,5 km/h (4 Bft)
07.05.2007 21:20 13,9 C 87 % 1004,1 hPa 2,3 mm 11,3 km/h (2 Bft) W-SW 247 0 min 0 UV-I 0 W/m 33,8 km/h (5 Bft)
07.05.2007 21:30 13,4 C 89 % 1004,4 hPa 0,3 mm 6,4 km/h (2 Bft) W-SW 247 0 min 0 UV-I 0 W/m 19,3 km/h (3 Bft)
07.05.2007 21:40 13,0 C 89 % 1004,7 hPa 0,3 mm 4,8 km/h (1 Bft) W 270 0 min 0 UV-I 0 W/m 9,7 km/h (2 Bft)
07.05.2007 22:00 12,7 C 90 % 1004,8 hPa 0,0 mm 4,8 km/h (1 Bft) W-SW 247 0 min 0 UV-I 0 W/m 24,1 km/h (4 Bft)
07.05.2007 22:10 12,8 C 90 % 1004,8 hPa 0,0 mm 4,8 km/h (1 Bft) W-SW 247 0 min 0 UV-I 0 W/m 11,3 km/h (2 Bft)
07.05.2007 22:20 12,9 C 90 % 1004,8 hPa 0,0 mm 3,2 km/h (1 Bft) W-SW 247 0 min 0 UV-I 0 W/m 16,1 km/h (3 Bft)
07.05.2007 22:30 12,9 C 90 % 1004,6 hPa 0,5 mm 3,2 km/h (1 Bft) W-SW 247 0 min 0 UV-I 0 W/m 9,7 km/h (2 Bft)
07.05.2007 22:40 12,8 C 90 % 1004,6 hPa 0,3 mm 3,3 km/h (1 Bft) W-SW 244 0 min 0 UV-I 0 W/m 9,7 km/h (2 Bft)
07.05.2007 22:50 12,9 C 91 % 1004,4 hPa 0,0 mm 3,7 km/h (1 Bft) SW 234 0 min 0 UV-I 0 W/m 11,3 km/h (2 Bft)
07.05.2007 23:00 13,0 C 90 % 1004,2 hPa 0,0 mm 5,3 km/h (1 Bft) SW 215 0 min 0 UV-I 0 W/m 16,1 km/h (3 Bft)
07.05.2007 23:10 13,0 C 90 % 1004,4 hPa 0,0 mm 5,0 km/h (1 Bft) SW 226 0 min 0 UV-I 0 W/m 16,1 km/h (3 Bft)
07.05.2007 23:20 13,1 C 90 % 1004,4 hPa 0,0 mm 5,0 km/h (1 Bft) W-SW 258 0 min 0 UV-I 0 W/m 12,9 km/h (3 Bft)
07.05.2007 23:30 13,1 C 90 % 1004,5 hPa 0,0 mm 5,5 km/h (1 Bft) W-SW 247 0 min 0 UV-I 0 W/m 24,1 km/h (4 Bft)
07.05.2007 23:40 13,1 C 89 % 1004,5 hPa 0,0 mm 5,6 km/h (1 Bft) SW 227 0 min 0 UV-I 0 W/m 17,7 km/h (3 Bft)
07.05.2007 23:50 13,1 C 89 % 1004,6 hPa 0,0 mm 4,8 km/h (1 Bft) W-SW 242 0 min 0 UV-I 0 W/m 14,5 km/h (3 Bft)
_ Min-Zeit 07:50 01:20 20:50 - 00:00 - - - - - 00:10
Minimum _ 12,0 C 51 % 1003,2 hPa - 0,0 km/h (0 Bft) - - - - - 3,2 km/h (1 Bft)
_ Max-Zeit 00:00 17:40 00:00 21:10 21:20 - - 00:00 13:10 14:50 21:20
Maximum _ 15,9 C 92 % 1012,5 hPa 3,6 mm 11,3 km/h
W-SW (2 Bft)
- - 0 min 2 UV-I 239 W/m 33,8 km/h
N (5 Bft)
Durchschnitt _ 13,7 C 83 % 1008,4 hPa #20,8 mm 4,5 km/h (1 Bft) W-SW - #0 min. 1 UV-I 96 W/m 14,4 km/h (3 Bft)